Temp
12 12 12 13 13 12 12 13 13 13 13 14 14 14 15 16 16 15 15 13 15 16 16 17 18 19 20 21 21 21 24 25 24 23 22 21 22 19 18 16 14 12 11 11 11
12 12 12 13 13 12 12 12 13 13 14 14 15 16 16 16 17 16 14 15 15 16 17 18 20 20 22 21 22 23 24 23 22 21 21 18 18 17 19 16 13 12 11 10 11
12 12 12 12 12 12 12 12 13 13 13 14 15 15 15 16 18 15 15 15 15 15 17 18 18 20 22 21 21 21 21 21 19 18 20 20 17 13 17 15 11 11 10 10 10
12 12 12 12 12 12 12 13 14 14 14 14 14 15 15 15 17 14 14 15 16 17 18 19 20 21 22 21 21 21 19 19 17 16 17 18 15 13 11 11 10 10 10 10 10
12 12 12 12 12 12 12 13 13 13 13 14 15 15 16 15 13 13 14 15 16 16 17 18 19 20 21 21 20 20 18 17 16 15 15 15 14 12 10 9 10 10 9 9 9
13 13 12 12 12 12 12 12 13 13 13 14 14 15 16 14 13 13 14 15 15 16 16 17 17 18 18 18 19 18 18 17 16 16 14 15 14 13 10 9 10 9 9 8 8
13 13 13 12 12 12 13 13 13 13 13 13 14 14 13 12 13 13 13 14 14 14 14 14 15 17 17 17 16 17 18 18 16 14 15 13 15 11 9 9 9 8 8 8 8
13 13 13 13 12 13 13 13 13 13 13 14 14 14 12 12 13 13 14 14 13 13 13 13 15 15 16 15 17 17 18 17 18 15 13 13 14 9 8 8 8 8 7 7 7
13 13 13 13 13 13 13 13 13 13 14 14 15 15 14 13 12 12 14 14 14 14 14 14 14 14 15 17 19 18 15 15 15 16 13 12 13 9 7 7 7 7 7 7 6
13 13 12 13 13 13 13 13 14 14 14 14 15 15 13 12 12 12 14 15 15 15 14 15 14 15 13 13 13 12 12 13 13 13 11 11 12 10 7 6 6 6 6 6 6
13 13 12 12 13 13 14 14 15 14 13 13 13 13 13 12 12 11 13 14 16 15 15 12 13 10 10 10 10 11 11 11 12 12 9 10 10 8 6 5 4 4 5 5 5
13 13 13 12 13 13 13 15 14 14 13 13 12 12 11 12 13 11 12 14 13 14 15 15 10 10 11 11 9 10 10 10 10 11 10 10 7 7 6 5 4 4 4 4 4
13 13 13 13 13 12 13 13 12 13 16 13 12 12 11 11 11 10 11 13 13 13 12 10 9 10 10 10 8 9 9 8 8 9 10 9 6 6 6 5 4 4 3 3 3
13 13 13 13 12 12 12 13 13 13 19 15 14 11 12 12 11 10 9 12 13 12 12 10 9 9 9 8 8 8 8 8 8 8 7 8 3 4 5 5 5 4 3 3 3
13 13 13 13 13 13 11 13 13 12 18 15 13 11 12 11 11 10 10 11 11 11 13 8 8 8 8 7 8 7 9 9 9 8 7 6 6 2 4 3 4 3 3 2 2
13 13 13 12 12 13 13 13 13 17 14 15 14 13 14 11 11 10 11 10 9 12 11 9 9 7 7 8 8 9 8 10 9 8 2 5 6 1 1 2 3 3 3 2 2
12 13 13 13 11 13 13 12 17 12 14 15 14 13 14 12 12 11 12 11 11 12 11 12 9 8 7 7 7 8 7 6 6 6 2 3 4 -1 1 3 3 3 3 2 2
12 12 13 13 13 13 12 17 11 15 15 13 13 13 13 11 11 11 12 11 10 11 12 10 10 7 6 5 4 6 6 4 1 3 3 3 1 0 3 3 3 3 2 2 2
12 12 12 12 12 12 14 9 15 16 15 14 14 14 14 13 11 12 10 10 8 9 8 8 9 8 6 6 6 5 5 6 4 5 4 2 0 2 4 3 3 2 2 2 2
11 11 11 12 12 13 17 13 13 13 13 13 15 13 14 13 12 13 11 8 8 7 7 8 8 8 6 6 7 6 6 3 4 1 1 3 2 0 1 2 3 2 2 2 1
11 14 12 12 13 15 12 13 12 11 11 13 13 13 12 12 11 11 9 8 7 8 7 8 7 8 8 4 4 5 4 4 4 3 2 1 1 1 1 2 2 2 1 1 1
12 16 12 12 14 15 14 13 11 11 10 11 11 12 12 11 11 10 10 9 6 6 7 7 6 7 8 5 5 6 4 4 2 2 3 2 1 4 3 2 2 1 1 0 0
15 14 11 12 7 10 11 11 11 11 11 11 11 10 10 11 10 10 9 6 5 6 7 7 7 7 8 5 5 6 5 5 4 3 1 1 2 4 4 1 1 1 -0 -1 -1
14 10 12 12 13 14 13 12 10 9 9 10 10 9 10 10 10 10 9 7 5 6 3 4 6 4 5 5 6 4 4 4 3 1 1 2 2 2 2 -0 -0 -1 -2 -2 -1
13 10 11 4 12 14 14 13 11 10 9 9 10 11 11 11 10 10 9 8 6 4 4 5 6 7 7 7 6 3 3 3 3 2 0 1 -0 0 0 -1 -1 -2 -1 -2 -2
10 12 11 11 12 13 10 13 13 11 11 11 10 11 10 10 10 9 8 9 9 7 6 7 6 7 6 5 2 3 4 4 4 3 2 1 1 3 2 1 -1 -1 -2 -3 -3
9 10 12 10 12 14 13 13 13 11 8 10 11 10 10 10 7 7 6 7 7 7 7 6 6 6 6 6 4 4 5 4 3 4 2 0 1 1 1 -0 -2 -2 -2 -3 -3
Height
1527 1526 1525 1525 1525 1525 1526 1527 1528 1528 1527 1526 1525 1524 1523 1523 1523 1523 1515 1521 1517 1515 1514 1512 1512 1511 1508 1506 1504 1500 1489 1477 1485 1492 1497 1503 1502 1509 1513 1517 1520 1525 1530 1530 1525
1529 1528 1528 1527 1527 1527 1528 1529 1529 1529 1528 1528 1526 1523 1523 1524 1526 1525 1527 1523 1519 1516 1516 1515 1512 1510 1505 1504 1503 1497 1485 1488 1502 1504 1502 1514 1513 1516 1511 1520 1526 1529 1531 1530 1527
1531 1531 1530 1530 1529 1529 1530 1531 1531 1531 1530 1530 1527 1523 1524 1524 1525 1531 1527 1524 1522 1518 1519 1517 1514 1510 1506 1505 1504 1503 1499 1503 1512 1514 1509 1507 1516 1525 1517 1520 1533 1533 1533 1531 1529
1532 1532 1533 1533 1533 1533 1534 1534 1534 1532 1531 1531 1530 1530 1528 1526 1535 1538 1531 1527 1524 1521 1521 1517 1513 1509 1507 1506 1508 1506 1513 1511 1518 1520 1517 1516 1524 1530 1532 1537 1536 1536 1535 1534 1532
1534 1535 1535 1535 1535 1536 1536 1536 1535 1536 1535 1533 1533 1532 1533 1530 1542 1540 1535 1532 1531 1528 1523 1520 1516 1513 1510 1510 1512 1508 1516 1519 1521 1524 1523 1525 1529 1532 1537 1538 1538 1537 1536 1535 1534
1536 1536 1536 1536 1537 1538 1538 1538 1538 1538 1537 1537 1535 1535 1536 1532 1546 1543 1539 1536 1533 1531 1528 1525 1523 1520 1520 1518 1515 1517 1517 1521 1523 1523 1526 1524 1529 1529 1538 1539 1538 1538 1537 1537 1537
1537 1537 1538 1538 1539 1539 1539 1540 1540 1540 1540 1538 1538 1539 1532 1550 1549 1545 1542 1539 1537 1535 1533 1531 1528 1524 1522 1521 1522 1519 1516 1515 1520 1527 1523 1530 1522 1537 1541 1540 1539 1539 1538 1537 1536
1539 1539 1540 1541 1541 1541 1541 1542 1543 1541 1541 1541 1541 1543 1545 1553 1551 1547 1545 1543 1541 1538 1536 1535 1532 1529 1525 1527 1522 1518 1513 1509 1509 1522 1528 1533 1520 1541 1543 1542 1541 1541 1541 1540 1538
1541 1542 1542 1543 1544 1544 1545 1545 1544 1545 1544 1543 1545 1545 1552 1557 1550 1549 1547 1545 1543 1542 1539 1538 1536 1535 1531 1519 1504 1508 1521 1517 1516 1519 1527 1534 1521 1539 1546 1546 1545 1544 1543 1542 1540
1543 1544 1544 1544 1546 1546 1547 1548 1548 1547 1546 1547 1549 1549 1559 1559 1555 1552 1549 1546 1542 1542 1543 1539 1539 1538 1542 1536 1536 1539 1534 1528 1524 1525 1534 1532 1525 1535 1545 1551 1550 1548 1546 1543 1542
1545 1545 1546 1546 1547 1548 1548 1549 1552 1555 1552 1556 1561 1560 1563 1561 1558 1552 1551 1549 1542 1542 1539 1547 1544 1552 1557 1559 1554 1546 1541 1535 1529 1534 1541 1534 1532 1541 1549 1555 1558 1555 1551 1546 1544
1547 1547 1547 1548 1549 1549 1550 1551 1551 1556 1560 1563 1563 1563 1564 1563 1559 1557 1555 1553 1551 1548 1544 1540 1556 1561 1558 1556 1556 1544 1537 1536 1538 1534 1534 1531 1537 1545 1555 1559 1561 1559 1555 1551 1546
1547 1547 1547 1548 1549 1552 1553 1552 1553 1553 1553 1565 1565 1565 1566 1565 1565 1563 1561 1557 1553 1552 1553 1558 1568 1564 1560 1556 1556 1548 1544 1546 1541 1532 1524 1527 1542 1546 1554 1557 1558 1558 1557 1554 1551
1548 1547 1547 1548 1552 1552 1553 1553 1553 1552 1544 1566 1566 1569 1568 1565 1568 1569 1565 1561 1557 1555 1555 1561 1569 1567 1561 1559 1557 1546 1551 1542 1533 1524 1522 1528 1549 1553 1555 1555 1557 1558 1557 1555 1551
1549 1548 1548 1548 1549 1553 1553 1553 1554 1555 1546 1569 1570 1572 1571 1569 1574 1572 1567 1563 1563 1562 1552 1575 1571 1567 1565 1565 1560 1554 1544 1529 1522 1523 1523 1531 1529 1560 1559 1560 1559 1560 1559 1558 1554
1550 1549 1548 1549 1549 1550 1552 1554 1555 1551 1566 1566 1571 1572 1569 1573 1575 1573 1570 1566 1566 1560 1562 1568 1570 1574 1573 1567 1562 1554 1541 1517 1512 1518 1553 1542 1535 1567 1567 1568 1564 1563 1561 1558 1556
1551 1549 1549 1549 1552 1551 1553 1556 1552 1569 1570 1567 1569 1572 1570 1574 1574 1575 1568 1569 1567 1557 1557 1554 1567 1571 1575 1568 1563 1555 1545 1536 1528 1524 1549 1553 1540 1572 1570 1567 1566 1563 1561 1557 1555
1551 1550 1550 1549 1551 1552 1555 1553 1571 1562 1561 1572 1572 1573 1572 1576 1576 1575 1568 1569 1575 1570 1554 1558 1555 1572 1579 1578 1576 1566 1559 1562 1569 1554 1546 1552 1562 1567 1567 1563 1563 1562 1560 1557 1554
1552 1552 1551 1552 1553 1554 1556 1571 1560 1557 1566 1569 1570 1564 1564 1571 1575 1571 1577 1577 1583 1581 1574 1570 1561 1575 1580 1579 1575 1570 1566 1563 1559 1549 1538 1556 1567 1563 1560 1563 1563 1561 1560 1556 1553
1555 1555 1554 1553 1554 1555 1552 1564 1566 1570 1572 1572 1563 1570 1563 1570 1569 1567 1573 1586 1584 1589 1585 1579 1566 1568 1577 1576 1575 1573 1569 1569 1561 1563 1559 1546 1549 1562 1564 1563 1562 1561 1559 1557 1553
1554 1555 1555 1555 1555 1555 1562 1563 1570 1574 1575 1572 1570 1569 1571 1573 1574 1573 1580 1587 1589 1587 1587 1580 1576 1565 1565 1577 1578 1573 1571 1570 1564 1562 1560 1558 1555 1567 1567 1563 1562 1561 1559 1557 1554
1555 1553 1555 1556 1558 1557 1560 1565 1571 1574 1577 1577 1576 1574 1574 1576 1574 1574 1578 1582 1590 1589 1584 1585 1578 1564 1560 1577 1580 1572 1573 1571 1572 1565 1557 1558 1556 1559 1559 1560 1561 1561 1559 1558 1555
1554 1556 1556 1556 1567 1565 1568 1570 1571 1574 1575 1577 1577 1579 1580 1576 1575 1578 1581 1588 1590 1588 1585 1585 1574 1562 1555 1571 1573 1566 1571 1569 1569 1568 1564 1560 1547 1554 1555 1559 1560 1560 1560 1559 1554
1556 1559 1559 1558 1557 1559 1562 1566 1572 1577 1578 1578 1579 1580 1579 1576 1579 1575 1578 1586 1589 1589 1591 1591 1578 1584 1575 1574 1569 1569 1569 1569 1570 1572 1565 1555 1552 1555 1557 1561 1561 1560 1560 1557 1553
1556 1557 1557 1567 1560 1558 1560 1564 1568 1572 1577 1578 1578 1577 1576 1573 1574 1575 1580 1582 1587 1588 1589 1586 1575 1568 1568 1565 1564 1574 1570 1567 1566 1569 1570 1559 1565 1560 1560 1558 1556 1557 1555 1553 1550
1556 1557 1558 1561 1561 1561 1565 1563 1564 1571 1573 1573 1574 1575 1577 1575 1576 1574 1578 1576 1575 1582 1583 1581 1574 1567 1563 1564 1576 1569 1563 1560 1558 1558 1561 1560 1556 1552 1554 1552 1554 1553 1551 1550 1548
1554 1556 1558 1562 1561 1559 1560 1563 1564 1570 1575 1573 1573 1575 1576 1577 1580 1579 1580 1579 1578 1578 1575 1576 1572 1566 1556 1558 1563 1556 1552 1555 1556 1555 1559 1558 1552 1554 1553 1554 1552 1548 1548 1546 1544
Wind_Speed
10 11 13 13 12 13 13 11 11 7 7 6 7 7 8 18 26 26 27 21 15 10 12 10 5 3 1 1 4 7 10 5 8 6 12 9 6 10 9 15 23 19 18 17 20
10 11 13 13 13 13 12 12 9 4 6 8 9 5 6 5 11 30 20 13 12 10 11 8 5 4 1 2 3 9 9 11 9 11 5 9 16 11 5 14 17 18 18 19 20
10 11 13 14 15 16 16 12 8 6 7 12 21 15 12 10 7 29 20 16 18 14 9 7 4 4 1 5 6 9 10 6 10 8 9 4 12 21 15 14 19 19 19 20 21
9 11 12 14 16 19 17 18 22 21 12 7 9 28 25 4 5 23 18 19 24 18 8 11 3 1 4 6 3 4 10 10 11 12 11 9 7 16 19 13 13 15 16 17 20
10 10 11 12 14 17 19 19 16 19 22 21 20 14 12 33 19 19 21 15 14 17 19 11 13 6 7 5 6 5 8 7 9 9 9 6 8 7 16 14 13 14 16 18 19
9 9 10 10 12 13 12 7 6 8 8 20 24 20 10 32 19 15 17 15 16 16 21 21 11 6 8 7 8 6 5 7 7 4 10 8 5 4 17 15 14 16 17 19 20
8 9 11 12 12 10 9 9 9 13 19 17 12 11 39 19 18 14 17 15 15 16 19 15 16 15 6 5 3 3 12 13 7 7 5 15 9 11 14 14 15 18 19 20 21
9 11 13 14 14 12 13 13 14 8 8 10 20 22 24 16 17 18 9 12 18 18 14 13 19 10 12 1 3 6 8 10 7 8 5 11 1 13 16 18 18 19 20 21 21
10 12 11 13 20 24 20 19 14 22 21 17 9 12 12 20 21 19 19 8 5 10 18 14 18 24 20 14 12 5 10 17 17 9 11 11 9 11 16 20 21 22 21 21 22
10 12 10 11 16 11 12 21 24 13 5 5 14 8 18 18 18 18 18 11 9 9 15 16 16 16 16 14 10 16 16 14 17 13 13 16 13 6 14 20 24 24 23 22 23
9 9 9 10 14 17 14 3 4 16 33 24 16 19 13 11 21 25 16 22 9 13 7 25 18 18 16 13 13 11 13 14 15 14 10 12 10 13 15 18 21 23 24 23 23
7 7 9 13 16 20 5 1 8 14 18 22 21 17 14 17 14 27 16 9 22 18 21 7 17 12 14 13 15 15 11 16 17 18 13 13 9 6 12 13 14 19 22 24 26
6 4 6 11 15 10 3 4 13 10 4 10 12 17 13 14 22 23 21 12 11 10 16 18 13 17 15 15 17 17 17 20 22 22 17 13 7 5 7 8 13 16 19 20 22
6 6 7 9 6 9 4 15 12 5 4 6 11 10 20 2 9 21 15 10 8 11 3 10 12 17 16 18 16 14 21 23 22 17 7 4 2 2 7 10 16 19 20 21 22
8 7 6 4 9 5 9 14 6 2 3 5 6 3 13 11 6 18 18 8 12 14 7 5 11 15 17 19 17 18 24 27 16 11 8 2 5 4 14 13 15 19 19 21 22
10 6 5 5 6 9 16 8 2 4 3 4 3 6 6 12 10 6 21 4 0 1 13 11 8 10 17 18 14 19 23 25 8 6 5 10 9 7 8 10 14 18 20 20 21
5 7 3 7 5 13 12 2 2 4 2 4 2 4 4 7 7 7 7 18 13 7 10 4 12 8 21 17 12 20 20 11 9 6 4 6 5 5 5 9 11 15 18 19 20
2 7 6 7 11 13 7 5 5 2 3 3 1 2 4 8 4 7 4 9 15 16 8 9 6 15 16 11 13 18 16 9 11 10 16 3 4 4 2 9 13 16 18 19 19
4 6 7 7 9 10 5 5 2 3 3 2 4 4 3 3 5 4 5 8 9 13 9 7 4 4 9 7 12 11 13 16 6 13 11 2 4 4 1 10 14 16 19 20 21
3 3 6 5 9 3 0 2 3 4 3 1 2 3 5 5 2 5 7 3 4 6 8 8 5 4 5 9 10 9 8 12 9 6 11 9 9 6 10 10 13 16 18 21 23
6 3 4 7 7 1 3 5 7 5 3 3 1 1 3 4 3 3 3 3 2 3 6 8 5 10 6 5 8 7 10 9 12 2 9 7 4 4 4 8 12 17 18 22 25
2 2 3 5 2 4 4 7 7 9 3 2 1 3 2 2 1 1 4 3 1 3 4 4 5 10 4 6 2 8 9 9 7 12 10 10 4 1 3 5 13 16 18 21 24
1 3 4 4 3 2 7 7 5 6 4 3 2 2 0 1 2 1 0 3 3 4 7 8 4 8 6 6 9 9 9 8 8 10 12 10 4 7 11 9 13 16 18 21 24
2 2 3 4 4 9 9 7 5 3 5 2 3 2 3 3 1 1 2 3 4 5 2 4 5 3 7 10 11 12 12 11 5 7 12 14 12 15 15 10 14 13 15 19 23
1 1 3 1 3 8 3 7 10 5 3 6 4 4 2 2 3 3 2 4 6 5 4 4 7 8 11 13 10 11 14 11 11 11 12 17 18 18 14 15 18 13 16 20 21
2 3 3 6 9 9 3 7 8 5 8 5 4 4 3 3 3 4 3 5 5 8 8 4 7 12 13 4 5 14 13 12 14 11 12 16 19 11 19 22 18 16 18 18 18
2 9 4 6 7 4 4 7 7 9 3 2 3 4 4 2 3 6 7 9 7 7 6 5 6 9 6 4 8 11 10 8 11 11 9 14 16 18 16 17 18 21 17 14 16
Wind_Direction
80 80 76 82 104 121 130 132 134 101 52 44 30 5 191 65 52 30 31 357 4 21 24 341 334 303 297 300 311 286 263 252 38 327 71 20 293 65 82 67 53 49 36 15 7
90 91 82 82 95 111 113 116 125 80 44 38 18 26 145 119 46 29 17 25 22 24 18 6 356 304 257 276 313 297 279 49 24 12 30 54 36 360 278 53 22 23 20 17 18
96 99 90 86 95 101 103 101 87 66 71 78 52 57 123 105 10 7 12 27 26 27 359 343 332 310 332 10 344 30 1 13 26 348 299 84 81 27 359 60 19 9 8 12 17
99 101 95 90 99 105 103 93 83 71 74 67 83 65 58 8 43 350 22 37 34 25 9 19 1 328 39 10 1 142 34 25 47 24 27 20 92 52 42 27 8 9 10 12 16
99 108 107 105 109 115 118 112 87 74 75 72 77 75 69 60 24 6 22 24 25 32 35 27 29 22 37 31 29 35 92 75 65 52 37 62 59 83 31 11 9 8 11 13 13
91 103 106 110 122 126 133 127 88 75 101 76 74 70 87 64 14 15 29 44 42 42 45 44 22 25 55 14 9 90 115 93 40 69 48 343 57 326 20 1 6 7 9 9 9
89 104 106 106 107 115 125 108 87 85 76 74 70 63 60 45 16 36 28 42 45 49 47 31 37 42 314 131 349 234 217 184 107 16 49 340 208 48 11 8 14 8 5 4 4
97 111 114 110 104 105 109 111 103 78 78 77 83 68 72 33 31 38 38 51 51 48 42 44 36 33 20 239 221 301 227 262 149 60 11 329 277 57 15 11 9 6 3 0 0
110 120 119 127 128 104 102 112 95 77 68 56 79 77 56 20 29 25 31 11 357 57 42 55 43 40 15 338 227 110 318 308 305 317 10 313 304 61 18 5 1 357 357 357 356
122 129 123 141 149 141 114 100 69 45 83 55 38 97 34 30 25 26 35 30 38 68 47 39 41 33 33 20 13 320 318 313 308 4 341 307 295 81 29 8 357 352 349 350 353
107 143 134 146 145 144 123 4 128 54 65 71 65 82 48 13 23 27 24 35 46 64 52 47 44 28 29 20 344 309 308 310 343 323 292 308 278 30 19 11 1 351 346 351 350
116 129 162 168 163 162 55 14 93 127 83 67 69 59 45 37 35 23 30 38 46 45 25 7 37 27 1 10 345 332 310 334 312 315 289 286 104 59 33 21 12 358 355 348 349
75 106 149 177 191 187 176 120 133 129 85 63 54 40 18 37 38 17 21 28 18 50 61 61 34 8 13 7 347 338 359 326 310 298 256 243 85 85 78 40 18 9 360 1 353
55 62 140 126 136 169 169 162 148 161 182 34 23 24 14 25 53 22 15 360 55 19 48 55 31 15 13 6 356 336 335 310 298 302 322 306 96 94 27 18 17 2 357 353 355
51 68 94 175 149 142 171 167 170 273 247 34 48 37 33 61 330 20 16 43 56 38 28 39 18 11 13 351 344 339 320 311 282 291 269 108 255 33 38 5 5 2 1 352 351
46 59 101 94 154 156 160 160 189 232 81 98 55 24 47 50 45 5 30 48 93 64 91 86 63 42 5 341 349 331 340 332 178 265 94 1 318 49 22 360 357 350 351 353 351
30 48 99 147 158 154 156 158 189 75 160 100 46 16 44 34 49 10 15 43 31 343 14 176 63 44 9 355 359 360 357 356 359 352 49 326 325 84 18 358 347 344 345 347 348
61 47 83 131 143 152 152 221 75 48 48 102 57 133 39 346 80 17 345 28 31 354 302 342 293 21 5 20 339 4 2 357 324 329 313 321 31 136 231 357 351 345 343 342 347
107 74 71 117 146 149 237 54 91 63 76 145 172 265 108 97 297 264 61 26 25 12 5 345 34 12 32 337 3 341 9 333 296 301 304 157 164 187 327 8 351 347 349 345 347
123 90 36 111 140 123 269 97 109 77 109 201 340 317 3 24 275 345 19 21 25 17 330 3 295 90 76 322 14 4 1 345 342 317 317 327 327 68 16 359 347 341 342 341 344
139 180 1 118 96 205 108 84 119 109 84 331 59 105 52 8 345 19 23 131 349 26 328 338 244 331 199 43 350 4 359 338 310 252 323 318 345 184 323 351 344 339 340 341 337
170 192 351 128 115 63 102 122 112 129 131 110 49 37 9 10 243 359 6 27 71 337 348 8 298 299 15 140 269 291 340 341 334 331 320 303 348 274 246 352 344 335 337 336 331
191 91 43 96 122 119 133 113 107 151 151 164 133 325 173 357 271 259 308 114 163 287 359 360 342 309 147 179 223 328 316 310 321 308 272 290 324 234 356 358 331 327 331 326 327
217 61 76 57 127 147 147 149 128 118 127 154 119 201 206 212 152 253 240 176 231 267 98 294 256 224 296 297 300 310 313 302 280 270 328 289 309 334 324 334 307 301 314 318 322
57 101 149 166 159 135 142 159 145 156 195 196 168 251 275 258 252 232 223 205 205 181 236 278 289 308 297 287 294 313 286 281 278 275 274 295 308 300 316 288 274 284 313 316 317
146 148 107 121 140 144 158 171 178 137 164 177 250 159 234 282 293 300 284 232 262 174 246 218 286 306 292 46 312 292 275 267 271 286 267 277 275 313 306 324 334 309 307 309 315
116 133 144 160 173 194 170 160 173 159 197 282 224 209 229 331 300 301 284 275 272 253 238 263 298 311 293 264 284 270 231 257 271 262 266 276 289 301 313 312 297 290 306 309 312